Regional Weather Roundup
Issued by NWS

Home | Current Version | Previous Version | Graphics & Text | Print | Product List | Glossary On
Versions: 1 2 3 4 5 6 7 8 9 10 11 12 13 14 15 16 17 18 19 20 21 22 23 24 25 26 27 28 29 30 31 32 33 34 35 36 37 38 39 40 41 42 43 44 45 46 47 48 49 50
000
ASUS43 KLSX 291957
RWRMO

WEATHER SUMMARY FOR MISSOURI
NATIONAL WEATHER SERVICE SPRINGFIELD MO
300 PM CDT SUN MAY 29 2016

NOTE: "FAIR" INDICATES FEW OR NO CLOUDS BELOW 12,000 FEET WITH NO
       SIGNIFICANT WEATHER AND/OR OBSTRUCTIONS TO VISIBILITY.
       CURRENT SKY AND/OR WEATHER CONDITIONS ARE NOT AVAILABLE FOR
       CHILLICOTHE AND FARMINGTON.

MOZ001>031-035>038-043-044-053-054-292100-
...NORTHERN AND WESTERN MISSOURI...

CITY           SKY/WX    TMP DP  RH WIND       PRES   REMARKS
KANSAS CTY INT MOSUNNY   84  58  40 SW6       30.10S
LEE`S SUMMIT   MOSUNNY   85  58  39 W8        30.10F
ST JOSEPH      SUNNY     86  58  38 SW13      30.07F
CHILLICOTHE      N/A     85  59  41 W7        30.08F

$$
MOZ066>068-077>081-088>096-101>105-292100-
...SOUTHWEST MISSOURI...

CITY           SKY/WX    TMP DP  RH WIND       PRES   REMARKS
SPRINGFIELD    MOSUNNY   84  59  42 VRB5      30.12F
JOPLIN         MOSUNNY   86  64  47 VRB5      30.10F
BRANSON        PTSUNNY   81  63  54 CALM      30.16S

$$
MOZ032>034-039>042-045>050-055>058-069>072-292100-
...CENTRAL MISSOURI...

CITY           SKY/WX    TMP DP  RH WIND       PRES   REMARKS
COLUMBIA       NOT AVBL
JEFFERSON CITY MOSUNNY   84  55  36 SW6       30.09F
ROLLA          CLOUDY    82  60  47 VRB6      30.11F
SEDALIA        MOSUNNY   84  57  39 CALM      30.12S
WARRENSBURG    SUNNY     84  59  42 W5        30.10S

$$
MOZ051-052-059>065-292100-
...EAST CENTRAL MISSOURI...

CITY           SKY/WX    TMP DP  RH WIND       PRES   REMARKS
ST LOUIS INTL  PTSUNNY   86  58  38 N8        30.09F

$$
MOZ072>076-082>087-097>100-106>115-292100-
...SOUTH CENTRAL AND SOUTHEAST MISSOURI...

CITY           SKY/WX    TMP DP  RH WIND       PRES   REMARKS
CAPE GIRARDEAU PTSUNNY   86  63  45 N7        30.07F
POPLAR BLUFF   MOSUNNY   86  64  47 VRB5      30.08F
WEST PLAINS    MOSUNNY   81  61  50 VRB3      30.14F

$$



USA.gov is the U.S. government's official web portal to all federal, state and local government web resources and services.